Meridian NAS, MS

1:15 PM CDT on June 25, 2017 (GMT -0500)
Meridian Naval Air Station

Weather History for KNMM - March, 2014

Change the Weather History Date:

Sunday, March 23, 2014

  Actual Average Record
Temperature  
Mean Temperature 54 °F -  
Max Temperature 62 °F 68 °F 84 °F (2011)
Min Temperature 48 °F 46 °F 30 °F (2004)
Degree Days  
Heating Degree Days 10    
Growing Degree Days 4 (Base 50)    
Moisture  
Dew Point 46 °F    
Average Humidity 78    
Maximum Humidity 93    
Minimum Humidity 57    
Precipitation  
Precipitation 0.52 in - - ()
Sea Level Pressure  
Sea Level Pressure 30.13 in    
Wind  
Wind Speed 8 mph (North)    
Max Wind Speed 16 mph    
Max Gust Speed 28 mph    
Visibility 9 miles    
Events Rain , Thunderstorm    
Averages and records for this station are not official NWS values.
T = Trace of Precipitation, MM = Missing Value Source: NWS Daily Summary

Daily Weather History Graph

Daily Weather History Graph

Search for Another Location

Airport or City:

Trip Planner

Search our weather history database for the weather conditions in past years. The results will help you decide how hot, cold, wet, or windy it might be!

Date:

Astronomy

Mar. 23, 2014 Rise Set
Actual Time 6:54 AM CDT 7:07 PM CDT
Civil Twilight 6:29 AM CDT 7:32 PM CDT
Nautical Twilight 6:00 AM CDT 8:01 PM CDT
Astronomical Twilight 5:31 AM CDT 8:30 PM CDT
Moon 1:08 AM CDT (3/23) 11:50 AM CDT (3/23)
Length of Visible Light 13h 03m
Length of Day
12h 13m
Waning Gibbous, 54% of the Moon is Illuminated
Mar 23
Waning Gibbous
Mar 23
Last Quarter
Mar 30
New
Apr 7
First Quarter
Apr 15
Full

Hourly Weather History & Observations

Time (CDT) Temp. Dew Point Humidity Pressure Visibility Wind Dir Wind Speed Gust Speed Precip Events Conditions
12:56 AM 57.9 °F 51.1 °F 78% 30.02 in 10.0 mi Calm Calm - N/A   Clear
1:56 AM 57.0 °F 52.0 °F 83% 30.00 in 10.0 mi South 3.5 mph - N/A   Partly Cloudy
2:56 AM 61.0 °F 52.0 °F 72% 30.02 in 10.0 mi NW 9.2 mph 27.6 mph N/A   Overcast
3:56 AM 59.0 °F 52.0 °F 78% 30.01 in 10.0 mi NNW 3.5 mph - N/A   Overcast
4:20 AM 59.0 °F 53.1 °F 81% 30.00 in 10.0 mi NNW 8.1 mph - N/A   Overcast
4:28 AM 57.9 °F 53.1 °F 84% 30.00 in 10.0 mi North 9.2 mph - N/A   Overcast
4:44 AM 57.0 °F 52.0 °F 83% 30.01 in 10.0 mi North 6.9 mph - N/A   Overcast
4:56 AM 57.0 °F 52.0 °F 83% 30.04 in 10.0 mi North 10.4 mph - N/A   Overcast
5:04 AM 55.9 °F 51.1 °F 84% 30.02 in 10.0 mi North 13.8 mph 19.6 mph N/A   Overcast
5:24 AM 55.9 °F 50.0 °F 80% 30.03 in 10.0 mi North 10.4 mph - N/A   Overcast
5:56 AM 53.1 °F 48.9 °F 86% 30.08 in 10.0 mi North 13.8 mph 19.6 mph 0.00 in Rain Light Rain
6:14 AM 52.0 °F 48.0 °F 86% 30.07 in 5.0 mi North 9.2 mph - 0.06 in Rain Light Rain
6:25 AM 50.0 °F 48.0 °F 93% 30.08 in 2.5 mi North 9.2 mph 21.9 mph 0.17 in Rain Heavy Rain
6:36 AM 50.0 °F 46.9 °F 89% 30.08 in 5.0 mi North 10.4 mph - 0.19 in Rain Light Rain
6:56 AM 50.0 °F 46.9 °F 89% 30.12 in 8.0 mi North 8.1 mph - 0.28 in Rain Light Rain
7:35 AM 48.9 °F 46.0 °F 90% 30.11 in 2.0 mi Variable 6.9 mph - 0.16 in Rain , Thunderstorm Heavy Thunderstorms and Rain
7:44 AM 48.9 °F 46.0 °F 90% 30.12 in 2.5 mi North 10.4 mph - 0.20 in Rain , Thunderstorm Heavy Thunderstorms and Rain
7:51 AM 48.2 °F 46.4 °F 93% 30.12 in 4.0 mi NNW 11.5 mph - 0.21 in Rain , Thunderstorm Thunderstorms and Rain
7:56 AM 48.0 °F 46.0 °F 93% 30.15 in 3.0 mi North 8.1 mph - 0.22 in Rain , Thunderstorm Thunderstorms and Rain
8:11 AM 48.0 °F 46.0 °F 93% 30.11 in 5.0 mi NNE 6.9 mph - 0.02 in Rain Rain
8:56 AM 48.9 °F 46.0 °F 90% 30.17 in 10.0 mi North 9.2 mph - 0.02 in Rain Light Rain
9:56 AM 48.9 °F 46.0 °F 90% 30.21 in 9.0 mi North 11.5 mph - 0.00 in   Overcast
10:53 AM 50.0 °F 46.4 °F 87% 30.19 in 10.0 mi North 11.5 mph - N/A   Overcast
10:56 AM 50.0 °F 45.0 °F 83% 30.22 in 10.0 mi North 11.5 mph - N/A   Overcast
11:56 AM 53.1 °F 44.1 °F 71% 30.22 in 10.0 mi NE 12.7 mph - N/A   Overcast
12:56 PM 54.0 °F 44.1 °F 69% 30.21 in 10.0 mi North 9.2 mph - N/A   Overcast
1:56 PM 51.1 °F 43.0 °F 74% 30.21 in 10.0 mi NNW 16.1 mph - N/A   Overcast
2:56 PM 51.1 °F 43.0 °F 74% 30.19 in 10.0 mi North 11.5 mph - N/A   Overcast
3:01 PM 51.1 °F 43.0 °F 74% 30.16 in 10.0 mi North 12.7 mph - N/A   Overcast
3:24 PM 53.1 °F 42.1 °F 66% 30.15 in 10.0 mi North 9.2 mph - N/A   Overcast
3:56 PM 53.1 °F 42.1 °F 66% 30.19 in 10.0 mi North 12.7 mph - N/A   Overcast
4:43 PM 54.0 °F 41.0 °F 62% 30.15 in 10.0 mi North 10.4 mph - N/A   Mostly Cloudy
4:56 PM 55.0 °F 41.0 °F 59% 30.18 in 10.0 mi North 10.4 mph - N/A   Mostly Cloudy
5:56 PM 55.0 °F 39.9 °F 57% 30.20 in 10.0 mi NNW 10.4 mph - N/A   Mostly Cloudy
6:56 PM 53.1 °F 41.0 °F 64% 30.21 in 10.0 mi North 5.8 mph - N/A   Overcast
7:56 PM 51.1 °F 42.1 °F 71% 30.23 in 10.0 mi NW 3.5 mph - N/A   Overcast
8:56 PM 51.1 °F 41.0 °F 68% 30.24 in 10.0 mi NNW 5.8 mph - N/A   Clear
9:56 PM 50.0 °F 37.9 °F 63% 30.24 in 10.0 mi North 8.1 mph - N/A   Clear
10:56 PM 50.0 °F 37.0 °F 61% 30.23 in 10.0 mi North 6.9 mph - N/A   Clear
11:56 PM 48.0 °F 36.0 °F 63% 30.23 in 10.0 mi NNE 4.6 mph - N/A   Clear